Weather History for KBAX - September, 2012

Change the Weather History Date:

Saturday, September 1, 2012

  Actual Average (KP58) Record (KP58)
Temperature  
Mean Temperature 65 °F -  
Max Temperature 80 °F 73 °F 88 °F (2010)
Min Temperature 50 °F 58 °F 52 °F (2001)
Growing Degree Days 15 (Base 50)    
Moisture  
Dew Point 59 °F    
Average Humidity 81    
Maximum Humidity 99    
Minimum Humidity 47    
Precipitation  
Precipitation 0.00 in - - ()
Sea Level Pressure  
Sea Level Pressure 30.12 in    
Wind  
Wind Speed 2 mph (NNE)    
Max Wind Speed 10 mph    
Max Gust Speed -    
Visibility 10 miles    
Events      
Averages and records for this station are not official NWS values.
T = Trace of Precipitation, MM = Missing Value Source: NWS Daily Summary

Daily Weather History Graph

Daily Weather History Graph

Search for Another Location

Airport or City:

Trip Planner

Search our weather history database for the weather conditions in past years. The results will help you decide how hot, cold, wet, or windy it might be!

Date:

Astronomy

Sep. 01, 2012 Rise Set
Actual Time 6:55 AM EDT 8:06 PM EDT
Civil Twilight 6:26 AM EDT 8:36 PM EDT
Nautical Twilight 5:50 AM EDT 9:11 PM EDT
Astronomical Twilight 5:13 AM EDT 9:48 PM EDT
Moon 8:17 PM EDT 8:06 AM EDT
Length of Visible Light 14h 09m
Length of Day
13h 10m
Full, 99% of the Moon is Illuminated
Sep 1
Full
Sep 8
Last Quarter
Sep 15
New
Sep 22
First Quarter
Sep 29
Full

Hourly Weather History & Observations

Time (EDT) Temp. Heat Index Dew Point Humidity Pressure Visibility Wind Dir Wind Speed Gust Speed Precip Events Conditions
12:12 AM 63.7 °F - 57.4 °F 80% 30.10 in 10.0 mi Calm Calm - N/A   Clear
12:31 AM 61.9 °F - 57.7 °F 86% 30.09 in 10.0 mi Calm Calm - N/A   Clear
12:52 AM 60.4 °F - 56.5 °F 87% 30.10 in 10.0 mi Calm Calm - N/A   Clear
1:12 AM 59.4 °F - 55.6 °F 87% 30.10 in 10.0 mi Calm Calm - N/A   Clear
1:32 AM 59.0 °F - 56.3 °F 91% 30.11 in 10.0 mi Calm Calm - N/A   Clear
1:52 AM 58.5 °F - 55.9 °F 91% 30.12 in 10.0 mi Calm Calm - N/A   Clear
2:11 AM 58.1 °F - 55.8 °F 92% 30.11 in 10.0 mi Calm Calm - N/A   Clear
2:32 AM 57.6 °F - 55.9 °F 94% 30.11 in 10.0 mi Calm Calm - N/A   Scattered Clouds
2:52 AM 57.0 °F - 55.0 °F 93% 30.11 in 10.0 mi Calm Calm - N/A   Clear
3:12 AM 56.3 °F - 54.1 °F 92% 30.11 in 10.0 mi WNW 3.5 mph - N/A   Clear
3:33 AM 56.1 °F - 54.3 °F 94% 30.11 in 10.0 mi Calm Calm - N/A   Clear
3:52 AM 54.5 °F - 53.1 °F 95% 30.12 in 10.0 mi Calm Calm - N/A   Clear
4:12 AM 53.8 °F - 52.7 °F 96% 30.12 in 10.0 mi Calm Calm - N/A   Clear
4:33 AM 53.1 °F - 52.0 °F 96% 30.12 in 7.0 mi Calm Calm - N/A   Clear
4:52 AM 52.5 °F - 51.3 °F 95% 30.13 in 10.0 mi Calm Calm - N/A   Clear
5:12 AM 53.1 °F - 52.0 °F 96% 30.12 in 10.0 mi Calm Calm - N/A   Clear
5:32 AM 52.5 °F - 51.6 °F 97% 30.13 in 7.0 mi Calm Calm - N/A   Clear
5:52 AM 51.3 °F - 50.5 °F 97% 30.13 in 10.0 mi Calm Calm - N/A   Clear
6:12 AM 50.7 °F - 50.0 °F 97% 30.13 in 7.0 mi Calm Calm - N/A   Clear
6:32 AM 51.8 °F - 51.1 °F 97% 30.13 in 10.0 mi Calm Calm - N/A   Scattered Clouds
6:52 AM 50.2 °F - 49.6 °F 98% 30.14 in 10.0 mi Calm Calm - N/A   Clear
7:12 AM 50.2 °F - 49.8 °F 99% 30.14 in 10.0 mi Calm Calm - N/A   Clear
7:32 AM 50.9 °F - 50.4 °F 98% 30.15 in 10.0 mi Calm Calm - N/A   Clear
7:52 AM 51.8 °F - 51.4 °F 99% 30.14 in 10.0 mi Calm Calm - N/A   Clear
8:12 AM 54.0 °F - 53.8 °F 99% 30.15 in 10.0 mi Calm Calm - N/A   Clear
8:32 AM 55.9 °F - 55.6 °F 99% 30.15 in 10.0 mi South 3.5 mph - N/A   Clear
8:53 AM 61.0 °F - 60.4 °F 98% 30.15 in 10.0 mi Calm Calm - N/A   Clear
9:12 AM 64.6 °F - 61.5 °F 90% 30.15 in 10.0 mi Calm Calm - N/A   Clear
9:32 AM 67.5 °F - 63.3 °F 87% 30.14 in 10.0 mi North 3.5 mph - N/A   Clear
9:52 AM 69.4 °F - 64.6 °F 84% 30.14 in 10.0 mi North 5.8 mph - N/A   Clear
10:12 AM 70.2 °F - 64.6 °F 82% 30.14 in 10.0 mi North 5.8 mph - N/A   Clear
10:33 AM 71.6 °F - 63.9 °F 76% 30.14 in 10.0 mi NNE 4.6 mph - N/A   Clear
10:52 AM 72.9 °F - 62.8 °F 71% 30.14 in 10.0 mi North 6.9 mph - N/A   Clear
11:12 AM 73.9 °F - 64.4 °F 72% 30.14 in 10.0 mi North 5.8 mph - N/A   Clear
11:32 AM 74.8 °F - 62.4 °F 65% 30.14 in 10.0 mi Calm Calm - N/A   Clear
12:12 PM 76.8 °F - 61.3 °F 59% 30.14 in 10.0 mi Calm Calm - N/A   Clear
12:32 PM 77.5 °F - 59.2 °F 53% 30.14 in 10.0 mi East 4.6 mph - N/A   Clear
12:52 PM 78.6 °F - 60.3 °F 53% 30.13 in 10.0 mi NNE 6.9 mph - N/A   Clear
1:11 PM 78.6 °F - 59.9 °F 52% 30.13 in 10.0 mi ENE 5.8 mph - N/A   Clear
1:32 PM 79.3 °F - 58.8 °F 49% 30.13 in 10.0 mi Calm Calm - N/A   Clear
2:13 PM 79.2 °F - 58.1 °F 48% 30.13 in 10.0 mi NNE 5.8 mph - N/A   Clear
2:32 PM 80.2 °F 80.7 °F 58.5 °F 47% 30.12 in 10.0 mi North 5.8 mph - N/A   Clear
2:52 PM 80.2 °F 80.7 °F 58.3 °F 47% 30.12 in 10.0 mi NE 6.9 mph - N/A   Clear
3:13 PM 80.1 °F 80.8 °F 59.4 °F 49% 30.11 in 10.0 mi NE 8.1 mph - N/A   Clear
3:33 PM 78.8 °F - 60.3 °F 53% 30.10 in 10.0 mi NE 8.1 mph - N/A   Clear
3:52 PM 78.3 °F - 63.1 °F 60% 30.10 in 10.0 mi NE 9.2 mph - N/A   Clear
4:13 PM 77.0 °F - 63.1 °F 62% 30.10 in 10.0 mi ENE 9.2 mph - N/A   Clear
4:32 PM 76.6 °F - 63.5 °F 64% 30.10 in 10.0 mi NNE 10.4 mph - N/A   Clear
4:52 PM 74.5 °F - 63.7 °F 69% 30.11 in 10.0 mi NNE 9.2 mph - N/A   Clear
5:13 PM 73.0 °F - 62.2 °F 69% 30.10 in 10.0 mi NE 9.2 mph - N/A   Clear
5:32 PM 72.0 °F - 63.1 °F 74% 30.10 in 10.0 mi NE 8.1 mph - N/A   Clear
5:52 PM 73.0 °F - 63.0 °F 71% 30.09 in 10.0 mi NE 10.4 mph - N/A   Clear
6:12 PM 72.0 °F - 63.5 °F 75% 30.09 in 10.0 mi NNE 10.4 mph - N/A   Clear
6:32 PM 71.1 °F - 63.7 °F 77% 30.09 in 10.0 mi NNE 9.2 mph - N/A   Clear
6:53 PM 70.0 °F - 62.8 °F 78% 30.09 in 10.0 mi NE 9.2 mph - N/A   Clear
7:12 PM 69.1 °F - 62.8 °F 80% 30.09 in 10.0 mi NE 6.9 mph - N/A   Clear
7:32 PM 68.2 °F - 62.2 °F 81% 30.10 in 10.0 mi NE 5.8 mph - N/A   Clear
7:53 PM 67.1 °F - 61.7 °F 83% 30.10 in 10.0 mi NE 4.6 mph - N/A   Clear
8:12 PM 66.4 °F - 61.7 °F 85% 30.10 in 10.0 mi NE 4.6 mph - N/A   Clear
8:32 PM 65.8 °F - 61.3 °F 85% 30.11 in 10.0 mi NE 4.6 mph - N/A   Clear
8:53 PM 64.8 °F - 61.0 °F 88% 30.11 in 10.0 mi NE 4.6 mph - N/A   Clear
9:12 PM 64.8 °F - 61.2 °F 88% 30.11 in 10.0 mi NE 5.8 mph - N/A   Clear
9:32 PM 64.8 °F - 61.5 °F 89% 30.11 in 10.0 mi NE 5.8 mph - N/A   Clear
9:53 PM 64.0 °F - 60.8 °F 89% 30.10 in 10.0 mi ENE 3.5 mph - N/A   Clear
10:12 PM 63.5 °F - 60.4 °F 90% 30.10 in 10.0 mi NE 4.6 mph - N/A   Clear
10:32 PM 63.0 °F - 60.1 °F 90% 30.10 in 10.0 mi Calm Calm - N/A   Clear
10:52 PM 62.6 °F - 59.9 °F 91% 30.10 in 10.0 mi NE 3.5 mph - N/A   Clear
11:13 PM 62.6 °F - 59.9 °F 91% 30.10 in 10.0 mi Calm Calm - N/A   Clear
11:32 PM 63.0 °F - 59.9 °F 90% 30.10 in 10.0 mi Calm Calm - N/A   Clear
11:52 PM 62.8 °F - 59.9 °F 90% 30.10 in 10.0 mi Calm Calm - N/A   Clear